SIN965 WIII-WSSS

Flight info

Callsign SIN965
Flight time N/A
Altitude 38000
Route DOLTA G579 REPOV REPOV2A
Aircraft B77W/H-SDE1E2E3FGHIJ2J3J4J5M1RWXY/LB1D1

Departure

Time 2026-05-04 11:48
Airport Soekarno-Hatta International Airport (WIII)

Arrival

Time N/A
Airport Singapore Changi Airport (WSSS)
Time Latitude Longitude Altitude Speed Heading
2026-05-04 11:16 -6.11811 106.66309 43 ft 0 kts 158°
2026-05-04 11:37 -6.11788 106.66300 40 ft 4 kts 158°
2026-05-04 11:37 -6.11763 106.66289 40 ft 4 kts 158°
2026-05-04 11:37 -6.11747 106.66283 40 ft 2 kts 158°
2026-05-04 11:38 -6.11729 106.66273 39 ft 4 kts 118°
2026-05-04 11:38 -6.11728 106.66252 37 ft 3 kts 68°
2026-05-04 11:38 -6.11737 106.66227 40 ft 3 kts 68°
2026-05-04 11:38 -6.11739 106.66224 43 ft 0 kts 68°
2026-05-04 11:41 -6.11733 106.66237 43 ft 6 kts 68°
2026-05-04 11:41 -6.11709 106.66299 43 ft 11 kts 68°
2026-05-04 11:41 -6.11682 106.66369 43 ft 11 kts 68°
2026-05-04 11:42 -6.11624 106.66402 43 ft 11 kts 349°
2026-05-04 11:42 -6.11552 106.66376 43 ft 11 kts 339°
2026-05-04 11:42 -6.11480 106.66347 43 ft 11 kts 339°
2026-05-04 11:42 -6.11409 106.66319 43 ft 11 kts 338°
2026-05-04 11:43 -6.11338 106.66314 43 ft 11 kts 40°
2026-05-04 11:43 -6.11298 106.66385 44 ft 14 kts 68°
2026-05-04 11:43 -6.11252 106.66501 43 ft 20 kts 68°
2026-05-04 11:43 -6.11201 106.66630 43 ft 20 kts 68°
2026-05-04 11:44 -6.11150 106.66758 41 ft 20 kts 68°
2026-05-04 11:44 -6.11100 106.66883 43 ft 17 kts 68°
2026-05-04 11:44 -6.11064 106.66957 43 ft 10 kts 48°
2026-05-04 11:44 -6.11031 106.66974 43 ft 3 kts 13°
2026-05-04 11:45 -6.11028 106.66974 43 ft 0 kts 11°
2026-05-04 11:45 -6.11025 106.66975 43 ft 1 kts
2026-05-04 11:45 -6.11005 106.66974 43 ft 7 kts 353°
2026-05-04 11:45 -6.10950 106.66934 44 ft 11 kts 305°
2026-05-04 11:46 -6.10923 106.66885 43 ft 7 kts 292°
2026-05-04 11:46 -6.10923 106.66838 43 ft 7 kts 257°
2026-05-04 11:46 -6.10933 106.66810 43 ft 0 kts 247°
2026-05-04 11:46 -6.10935 106.66807 43 ft 0 kts 247°
2026-05-04 11:47 -6.10964 106.66736 43 ft 40 kts 248°
2026-05-04 11:47 -6.11180 106.66192 45 ft 124 kts 248°
2026-05-04 11:47 -6.11587 106.65164 97 ft 184 kts 248°
2026-05-04 11:48 -6.12054 106.63941 781 ft 190 kts 248°
2026-05-04 11:48 -6.12512 106.62672 1536 ft 195 kts 260°
2026-05-04 11:48 -6.12335 106.61314 2060 ft 206 kts 292°
2026-05-04 11:48 -6.11747 106.59889 2308 ft 237 kts 292°
2026-05-04 11:49 -6.11129 106.58236 2651 ft 264 kts 290°
2026-05-04 11:49 -6.10519 106.56469 3452 ft 271 kts 289°
2026-05-04 11:49 -6.09933 106.54677 4367 ft 275 kts 288°
2026-05-04 11:49 -6.09347 106.52834 5285 ft 278 kts 287°
2026-05-04 11:50 -6.08760 106.50966 6154 ft 283 kts 287°
2026-05-04 11:50 -6.08098 106.49099 6915 ft 285 kts 298°
2026-05-04 11:50 -6.06754 106.47626 7575 ft 289 kts 327°
2026-05-04 11:50 -6.05215 106.46659 8227 ft 292 kts 329°
2026-05-04 11:51 -6.03156 106.45385 9217 ft 296 kts 329°
2026-05-04 11:51 -5.99598 106.43179 10692 ft 310 kts 329°
2026-05-04 11:51 -5.95653 106.40726 11369 ft 357 kts 329°
2026-05-04 11:51 -5.89609 106.36948 13170 ft 390 kts 329°
2026-05-04 11:52 -5.80140 106.31016 16355 ft 411 kts 329°
2026-05-04 11:52 -5.70148 106.24887 18819 ft 427 kts 332°
2026-05-04 11:52 -5.59680 106.19073 19655 ft 436 kts 332°
2026-05-04 11:52 -5.49041 106.13072 20032 ft 445 kts 332°
2026-05-04 11:53 -5.38071 106.06879 22726 ft 457 kts 332°
2026-05-04 11:53 -5.26855 106.00549 24969 ft 469 kts 332°
2026-05-04 11:53 -5.15517 105.94148 27025 ft 478 kts 332°
2026-05-04 11:53 -5.03792 105.87493 28767 ft 492 kts 332°
2026-05-04 11:55 -4.19927 105.39735 37924 ft 498 kts 332°
2026-05-04 11:56 -3.88912 105.22108 37771 ft 475 kts 332°
2026-05-04 11:56 -3.43113 104.96344 37987 ft 478 kts 332°
2026-05-04 11:56 -3.19541 104.83088 37991 ft 493 kts 332°
2026-05-04 11:57 -2.95511 104.69578 37878 ft 496 kts 332°
2026-05-04 11:57 -2.69914 104.61583 37890 ft 477 kts 354°
2026-05-04 11:57 -2.43683 104.57016 37836 ft 480 kts 350°
2026-05-04 11:58 -1.90277 104.46881 37971 ft 497 kts 350°
2026-05-04 11:58 -1.63111 104.41760 37848 ft 495 kts 350°
2026-05-04 11:58 -1.36301 104.36698 37777 ft 483 kts 350°
2026-05-04 11:59 -0.83962 104.26839 37925 ft 482 kts 350°
2026-05-04 11:59 -0.57293 104.21813 38003 ft 493 kts 350°
2026-05-04 11:59 -0.30139 104.16432 37908 ft 499 kts 350°
2026-05-04 12:00 0.23686 104.05719 37765 ft 483 kts 350°
2026-05-04 12:00 0.38114 104.02855 37479 ft 469 kts 350°
2026-05-04 12:00 0.41324 104.02219 36671 ft 473 kts 350°
2026-05-04 12:01 0.44599 104.01572 35508 ft 486 kts 351°
2026-05-04 12:01 0.47960 104.00908 34390 ft 497 kts 351°
2026-05-04 12:02 0.68112 103.96074 29643 ft 477 kts 333°
2026-05-04 12:03 0.70917 103.94361 28583 ft 468 kts 324°
2026-05-04 12:03 0.73348 103.92264 27577 ft 458 kts 314°
2026-05-04 12:03 0.75345 103.89869 26626 ft 450 kts 305°
2026-05-04 12:03 0.76903 103.87196 25696 ft 442 kts 295°
2026-05-04 12:04 0.77841 103.84305 24774 ft 435 kts 278°
2026-05-04 12:04 0.77860 103.81326 23995 ft 425 kts 259°
2026-05-04 12:04 0.76974 103.78569 23334 ft 411 kts 241°
2026-05-04 12:04 0.75316 103.76301 22546 ft 398 kts 221°
2026-05-04 12:05 0.73095 103.74750 21800 ft 385 kts 202°
2026-05-04 12:05 0.70566 103.74052 21063 ft 372 kts 182°
2026-05-04 12:05 0.68043 103.74263 20362 ft 359 kts 161°
2026-05-04 12:05 0.65847 103.75317 19667 ft 347 kts 140°
2026-05-04 12:06 0.64241 103.77057 18979 ft 337 kts 118°
2026-05-04 12:06 0.63443 103.79207 18319 ft 329 kts 97°
2026-05-04 12:06 0.63536 103.81425 17589 ft 323 kts 75°
2026-05-04 12:06 0.64495 103.83428 16844 ft 321 kts 52°
2026-05-04 12:07 0.66169 103.84879 16109 ft 320 kts 29°
2026-05-04 12:07 0.66845 103.85204 15859 ft 320 kts 24°